Tracking 32954 objects as of 19-Jan-2026
HD Live streaming from Space Station
objects crossing your sky now

STARLINK-31873

Track STARLINK-31873 now!
10-day predictions
STARLINK-31873 is classified as:


NORAD ID: 59790
Int'l Code: 2024-093J
Perigee: 489.2 km
Apogee: 491.2 km
Inclination: 43.0 °
Period: 94.3 minutes
Semi major axis: 6861 km
RCS: Unknown
Launch date: May 18, 2024
Source: United States (US)
Launch site: AIR FORCE EASTERN TEST RANGE (AFETR)
Your satellite tracking list
Your tracking list is empty




NASA's NSSDC Master Catalog

Two Line Element Set (TLE):
1 59790U 24093J   26018.71162503 -.00000793  00000-0 -19299-4 0  9995
2 59790  43.0009 130.9971 0001487 264.9213  95.1469 15.27574497 95059
Source of the keplerian elements: AFSPC